Погода в Инсар-Акшине

Россия / Республика Мордовия     54°00′30″N   44°46′37″E
темп.,
°C
ветер,
м/с
пор.,
м/с
влажн.,
%
обл.,
%
осадки,
мм/ч
давл.,
гПа
погр.,
м
19 апреля, пн
пн1900:00+6всв51168100 0.0 1021289
03:00+6всв51081100 0.0 1021402
06:00+4всв61175100 0.0 1022425
09:00+6в81265100 0.0 1022672
12:00+9всв91054100 0.0 10211154
15:00+9в8105192 0.0 10211542
18:00+8всв81161100 0.0 10221093
21:00+5в81370100 0.0 1023736
20 апреля, вт
вт2000:00+4в71376100 0.0 1023718
03:00+4в71373100 0.0 1023894
06:00+3вюв81490100 0.1 1023806
09:00+1вюв81594100 0.6 1024757
12:00+3вюв91673100 0.5 1024777
15:00+5вюв81567100 0.8 1022839
18:00+6вюв91763100 0.0 1020950
21:00+6вюв101862100 0.0 10191007
21 апреля, ср
ср2100:00+4юв112283100 2.9 1017836
03:00+3юв112290100 7.7 1014886
06:00+4юв112087100 0.9 1013889
09:00+4юв112089100 1.0 1013852
12:00+5ююв111991100 0.1 1013881
15:00+7ююв91690100 0.1 1014907
18:00+7ю6108861 0.1 1017439
21:00+6ююв71295100 0.1 1018377
22 апреля, чт
чт2200:00+5ююв61296100 0.0 1019404
03:00+5ююв61297100 1.5 1020497
06:00+7ююз61084100 0.0 1020604
09:00+9ююз69714 0.0 10211039
12:00+12юз67535 0.0 10221435
15:00+14ююз564845 0.0 10221901
18:00+12юз346050 0.1 1023149
21:00+10ююв2266100 0.1 102428
23 апреля, пт
пт2300:00+8ююв3687100 0.0 1024177
03:00+6ююв379567 0.0 1025146
06:00+7ююв489395 0.0 1025221
09:00+9ююв567880 0.0 1024366
12:00+14ю34551 0.0 10231244
15:00+15ю3345100 0.1 10211842
18:00+12ююв58669 0.4 1021419
21:00+9юв39835 0.5 1021219